Cumshewa Island, British Columbia

9:43 PM PST on November 22, 2017 (GMT -0800)
Cumshewa Island

Weather History for CWZL - December, 2013

Change the Weather History Date:

Tuesday, December 17, 2013

  Actual Average (CYZP) Record (CYZP)
Temperature  
Mean Temperature 44 °F -  
Max Temperature 53 °F 42 °F 50 °F (2013)
Min Temperature 36 °F 35 °F 26 °F (2001)
Degree Days  
Heating Degree Days 20    
Moisture  
Dew Point 34 °F    
Average Humidity 77    
Maximum Humidity 86    
Minimum Humidity 67    
Precipitation  
Precipitation 0.00 in - - ()
Sea Level Pressure  
Sea Level Pressure 29.95 in    
Wind  
Wind Speed 12 mph ()    
Max Wind Speed 34 mph    
Max Gust Speed 43 mph    
Averages and records for this station are not official NWS values.
T = Trace of Precipitation, MM = Missing Value Source: Averaged Metar Reports

Daily Weather History Graph

Daily Weather History Graph

Search for Another Location

Airport or City:

Trip Planner

Search our weather history database for the weather conditions in past years. The results will help you decide how hot, cold, wet, or windy it might be!

Date:

Astronomy

Dec. 17, 2013 Rise Set
Actual Time 8:55 AM PST 4:29 PM PST
Civil Twilight 8:13 AM PST 5:12 PM PST
Nautical Twilight 7:28 AM PST 5:57 PM PST
Astronomical Twilight 6:45 AM PST 6:39 PM PST
Moon 5:25 PM PST (12/17) 8:48 AM PST (12/17)
Length of Visible Light 8h 59m
Length of Day
7h 34m
Full, 100% of the Moon is Illuminated
Dec 17
Full
Dec 25
Last Quarter
Jan 1
New
Jan 7
First Quarter
Jan 15
Full

Hourly Weather History & Observations

Time (PST) Temp. Windchill Dew Point Humidity Pressure Visibility Wind Dir Wind Speed Gust Speed Precip Events Conditions
12:00 AM 53.8 °F - 43.0 °F 67% 29.49 in - WSW 34.5 mph 41.4 mph N/A   Unknown
1:00 AM 51.1 °F - 41.0 °F 68% 29.52 in - West 32.2 mph 42.6 mph N/A   Unknown
2:00 AM 46.8 °F - 39.9 °F 77% 29.65 in - NW 17.3 mph 25.3 mph N/A   Unknown
3:00 AM 45.7 °F 42.7 °F 38.8 °F 77% 29.75 in - NW 5.8 mph - N/A   Unknown
4:00 AM 45 °F - 38 °F 70% 29.81 in - WNW 6.9 mph - -  
4:00 AM 44.8 °F 41.0 °F 38.3 °F 78% 29.81 in - WNW 6.9 mph - N/A   Unknown
5:00 AM 44.4 °F 41.2 °F 37.9 °F 78% 29.85 in - NNW 5.8 mph - N/A   Unknown
6:00 AM 44.1 °F - 37.6 °F 78% 29.87 in - NW 2.3 mph - N/A   Unknown
7:00 AM 43.3 °F - 38.7 °F 84% 29.90 in - NW 2.3 mph - N/A   Unknown
8:00 AM 42.3 °F 37.9 °F 38.3 °F 86% 29.93 in - NW 6.9 mph - N/A   Unknown
9:00 AM 41.2 °F 34.5 °F 35.8 °F 81% 29.96 in - WNW 11.5 mph 21.9 mph N/A   Unknown
10:00 AM 40 °F - 34 °F 72% 29.99 in - WNW 13.8 mph - -  
10:00 AM 40.3 °F 32.6 °F 34.2 °F 79% 29.99 in - WNW 13.8 mph 20.7 mph N/A   Unknown
11:00 AM 38.8 °F 31.2 °F 34.2 °F 83% 30.01 in - WNW 12.7 mph 23.0 mph N/A   Unknown
12:00 PM 40.3 °F 35.5 °F 33.6 °F 77% 30.01 in - WNW 6.9 mph - N/A   Unknown
1:00 PM 38.3 °F 31.9 °F 32.9 °F 81% 30.02 in - WNW 9.2 mph - N/A   Unknown
2:00 PM 37.9 °F 30.9 °F 33.4 °F 84% 30.03 in - West 10.4 mph - N/A   Unknown
3:00 PM 36.7 °F 28.4 °F 31.6 °F 82% 30.04 in - West 12.7 mph 21.9 mph N/A   Unknown
4:00 PM 37 °F - 31 °F 72% 30.05 in - WNW 11.5 mph - -  
4:00 PM 37.4 °F 29.8 °F 32.9 °F 84% 30.05 in - WNW 11.5 mph 18.4 mph N/A   Unknown
5:00 PM 37.6 °F 34.0 °F 30.2 °F 75% 30.06 in - NW 4.6 mph - N/A   Unknown
6:00 PM 37.8 °F 33.3 °F 30.6 °F 75% 30.08 in - West 5.8 mph - N/A   Unknown
7:00 PM 36.7 °F 29.4 °F 29.8 °F 76% 30.08 in - WNW 10.4 mph - N/A   Unknown
8:00 PM 36.3 °F 33.7 °F 29.7 °F 77% 30.10 in - NNW 3.5 mph - N/A   Unknown
9:00 PM 37.0 °F 30.4 °F 29.5 °F 74% 30.11 in - West 9.2 mph - N/A   Unknown
10:00 PM 37 °F - 30 °F 67% 30.14 in - WNW 11.5 mph - -  
10:00 PM 36.9 °F 29.1 °F 30.0 °F 76% 30.14 in - WNW 11.5 mph - N/A   Unknown
11:00 PM 36.9 °F 30.1 °F 30.9 °F 79% 30.16 in - West 9.2 mph - N/A   Unknown